[[{"header":{"parameterUnit":"m.s-1","parameterCategory":1,"la1":30.2992,"la2":30.254,"lo1":-89.0895,"lo2":-89.0443,"dy":0.0025,"dx":0.0025,"nx":19,"ny":19,"refTime":"2026-04-29T21:00:00:Z","depth":0,"parameterNumber":2,"parameterNumberName":"U-component_of_WINDS"},"data":[0,0,0,-4.4126,-4.4127,-4.4176,-4.4176,-4.4278,-4.428,0,0,0,0,0,0,0,0,0,0,0,-4.4136,-4.4138,-4.4126,-4.4127,-4.4176,-4.4176,-4.4278,-4.428,0,0,0,0,0,0,0,0,0,0,0,-4.4135,-4.4137,-4.4139,-4.4128,-4.4176,-4.4176,-4.4278,-4.4227,0,0,0,0,0,0,0,0,0,0,-4.4173,-4.4207,-4.4137,-4.4139,-4.4128,-4.4176,-4.4176,-4.4224,-4.423,-4.4274,0,-4.432,0,-4.4302,-4.4289,-4.429,0,0,0,-4.4109,-4.4202,-4.4192,-4.414,-4.4129,-4.4176,-4.4149,-4.4227,-4.4234,-4.4283,-4.4321,-4.4323,-4.4303,-4.429,-4.4291,-4.4608,-4.461,0,0,-4.4106,-4.4158,-4.4188,-4.4198,-4.4193,-4.4147,-4.415,-4.423,-4.4275,-4.4321,-4.4325,-4.4305,-4.4291,-4.4292,-4.4606,-4.4609,0,0,0,-4.4111,-4.4157,-4.4145,-4.4195,-4.4201,-4.4149,-4.4153,-4.4272,-4.4263,-4.4326,-4.4306,-4.4292,-4.4294,-4.4603,-4.4607,-4.4775,0,0,0,-4.4109,-4.416,-4.4145,-4.4177,-4.42,-4.4237,-4.4193,-4.4258,-4.4265,-4.4306,-4.4292,-4.4295,-4.46,-4.4605,-4.4765,-4.4847,0,0,0,-4.4125,-4.4161,-4.4177,-4.418,-4.4202,-4.4234,-4.423,-4.4258,-4.4254,-4.429,-4.4295,-4.4598,-4.4604,-4.4755,-4.4831,-4.4947,0,0,0,-4.4156,-4.4324,-4.418,-4.436,-4.4202,-4.4338,-4.4229,-4.4327,-4.4377,-4.4293,-4.4601,-4.4606,-4.4753,-4.4822,-4.4937,-4.5055,-4.5109,0,0,-4.4397,-4.4355,-4.4457,-4.4329,-4.4504,-4.4326,-4.4525,-4.4521,-4.4477,-4.4567,-4.4574,-4.4768,-4.483,-4.4945,-4.5386,-4.5429,0,0,0,-4.4551,-4.4626,-4.466,-4.4711,-4.4713,-4.4721,-4.4682,-4.4681,-4.4755,-4.4534,-4.4838,-4.4873,-4.4939,-4.4993,-4.5029,-4.5083,-4.4633,-4.4632,-4.4632,-4.4968,-4.4902,-4.5067,-4.5008,-4.5059,-4.5017,-4.5052,-4.5043,-4.4961,-4.5035,-4.5062,-4.5338,-4.5403,-4.543,-4.5487,-4.5117,-4.5117,-4.5118,-4.5118,-4.5317,-4.5413,-4.5301,-4.5421,-4.5351,-4.5451,-4.5417,-4.5356,-4.544,-4.5311,-4.5365,-4.5233,-4.5479,-4.5525,-4.513,-4.5128,-4.5127,-4.5126,-4.5125,-4.5584,-4.5619,-4.5615,-4.5683,-4.5742,-4.5675,-4.5762,-4.5694,-4.563,-4.5684,-4.5706,-4.5704,-4.5694,-4.5699,-4.57,-4.5701,-4.5702,-4.5702,-4.5703,-4.5865,-4.5854,-4.5935,-4.5952,-4.5977,-4.6,-4.5961,-4.5983,-4.599,-4.5934,-4.5934,-4.5847,-4.5514,-4.5434,-4.5718,-4.5715,-4.5713,-4.5712,-4.5711,-4.6247,-4.615,-4.6275,-4.63,-4.6315,-4.638,-4.6292,-4.6344,-4.6352,-4.6397,-4.6298,-4.6062,-4.6014,-4.5984,-4.5917,-4.631,-4.631,-4.631,-4.631,-4.6475,-4.6443,-4.6557,-4.6602,-4.6637,-4.6571,-4.6716,-4.6687,-4.6642,-4.6643,-4.6576,-4.648,-4.6453,-4.6421,-4.6382,-4.6319,-4.6804,-4.6805,-4.6805,-4.6707,-4.6676,-4.6813,-4.6767,-4.6774,-4.6782,-4.6917,-4.6974,-4.6901,-4.6824,-4.6644,-4.6623,-4.6467,-4.642,-4.6341,-4.6282,-4.6164,0,0]},{"header":{"parameterUnit":"m.s-1","parameterCategory":1,"la1":30.2992,"la2":30.254,"lo1":-89.0895,"lo2":-89.0443,"dy":0.0025,"dx":0.0025,"nx":19,"ny":19,"refTime":"2026-04-29T21:00:00:Z","depth":0,"parameterNumber":3,"parameterNumberName":"V-component_of_WINDS"},"data":[0,0,0,-1.7514,-1.7513,-1.7457,-1.7457,-1.7387,-1.7386,0,0,0,0,0,0,0,0,0,0,0,-1.7534,-1.7534,-1.7514,-1.7513,-1.7457,-1.7457,-1.7387,-1.7386,0,0,0,0,0,0,0,0,0,0,0,-1.7534,-1.7534,-1.7533,-1.7512,-1.7457,-1.7457,-1.7387,-1.7428,0,0,0,0,0,0,0,0,0,0,-1.7482,-1.7505,-1.7534,-1.7533,-1.7512,-1.7457,-1.7457,-1.743,-1.7425,-1.7414,0,-1.7407,0,-1.7396,-1.7382,-1.7382,0,0,0,-1.7509,-1.7509,-1.749,-1.7533,-1.7512,-1.7457,-1.7481,-1.7427,-1.7422,-1.7408,-1.7406,-1.7403,-1.7395,-1.7382,-1.7381,-1.7332,-1.7332,0,0,-1.7512,-1.7525,-1.7494,-1.7487,-1.7499,-1.7483,-1.7479,-1.7424,-1.7422,-1.7406,-1.7402,-1.7394,-1.7381,-1.7381,-1.7332,-1.7332,0,0,0,-1.7523,-1.7528,-1.7511,-1.749,-1.748,-1.7481,-1.7477,-1.7424,-1.7418,-1.7401,-1.7393,-1.7381,-1.738,-1.7332,-1.7332,-1.7342,0,0,0,-1.7525,-1.7534,-1.7512,-1.752,-1.7482,-1.7452,-1.7479,-1.7422,-1.7415,-1.7393,-1.7381,-1.738,-1.7332,-1.7332,-1.7342,-1.7345,0,0,0,-1.7536,-1.7536,-1.7529,-1.7521,-1.7498,-1.7453,-1.7443,-1.742,-1.741,-1.7382,-1.7379,-1.7332,-1.7332,-1.7342,-1.7345,-1.7335,0,0,0,-1.7552,-1.7539,-1.753,-1.7512,-1.7498,-1.7461,-1.7443,-1.7414,-1.7391,-1.7381,-1.7332,-1.7332,-1.7342,-1.7344,-1.7335,-1.733,-1.7329,0,0,-1.7543,-1.7538,-1.7527,-1.7517,-1.7485,-1.7468,-1.7436,-1.7401,-1.7385,-1.735,-1.7348,-1.7342,-1.7345,-1.7335,-1.7321,-1.7321,0,0,0,-1.7528,-1.752,-1.7508,-1.7488,-1.7463,-1.744,-1.7409,-1.7395,-1.7365,-1.7371,-1.7336,-1.7337,-1.7331,-1.7328,-1.7327,-1.732,-1.7331,-1.7331,-1.7331,-1.7535,-1.7516,-1.7495,-1.7469,-1.7449,-1.7417,-1.7398,-1.7374,-1.736,-1.7352,-1.7342,-1.7336,-1.7332,-1.7332,-1.7325,-1.7337,-1.7337,-1.7337,-1.7338,-1.7519,-1.7504,-1.7486,-1.746,-1.7439,-1.7415,-1.7382,-1.7373,-1.7346,-1.7342,-1.7336,-1.7334,-1.7332,-1.7325,-1.7338,-1.7338,-1.7338,-1.7338,-1.7338,-1.7521,-1.7511,-1.7496,-1.7464,-1.7441,-1.7414,-1.7389,-1.737,-1.7352,-1.7346,-1.7332,-1.7332,-1.7328,-1.7341,-1.7341,-1.7341,-1.7341,-1.7341,-1.7341,-1.7529,-1.7512,-1.7495,-1.7466,-1.745,-1.7426,-1.7392,-1.7375,-1.735,-1.7338,-1.7338,-1.7323,-1.7336,-1.734,-1.734,-1.734,-1.734,-1.734,-1.734,-1.752,-1.7519,-1.7493,-1.7477,-1.744,-1.7417,-1.7394,-1.7359,-1.7342,-1.733,-1.7316,-1.7329,-1.7322,-1.7322,-1.7325,-1.7322,-1.7322,-1.7322,-1.7322,-1.7522,-1.7517,-1.7485,-1.746,-1.7433,-1.7409,-1.7376,-1.7349,-1.732,-1.7307,-1.7305,-1.7306,-1.7307,-1.73,-1.73,-1.7302,-1.7293,-1.7293,-1.7293,-1.7514,-1.7506,-1.7484,-1.7458,-1.7427,-1.74,-1.7368,-1.7338,-1.7304,-1.7292,-1.7296,-1.7297,-1.73,-1.7302,-1.729,-1.7292,-1.7295,0,0]}]]